Torna al catalogo

SL-12 DEB

LostHEO
NORAD 26802·DEBRIS·🇷🇺 Russia

Lanciato Dec 24, 1985 da Baikonur Cosmodrome

Loading…

Prossimi Passaggi (prossime 24 ore)

TLE

ObsoletoSource: Space-Track

Epoca: Feb 17, 2003, 17:48 UTC

1 26802U 85118Z   03048.74181884 +.00000000 +00000-0 +10000-3 0  9991
2 26802 064.8211 166.9492 4729507 351.4123 001.2704 05.61322920038265

Traccia SL-12 DEB in tempo reale con AllMySat

Download on the App Store